[Iaude] MPEC B70: 2024 BS1 [a=1.67,e=0.58,i=1.0,H=27.3]

mpec at marsden.cfa.harvard.edu mpec at marsden.cfa.harvard.edu
Sat Jan 20 09:44:35 EST 2024


M.P.E.C. 2024-B70                              Issued 2024 January 20, 14:42 UT

     The Minor Planet Electronic Circulars contain information on unusual
         minor planets, routine data on comets and natural satellites,
         and occasional editorial announcements.  They are published
    on behalf of Division F of the International Astronomical Union by the
          Minor Planet Center, Smithsonian Astrophysical Observatory,
                          Cambridge, MA 02138, U.S.A.
			  
             Prepared using the Tamkin Foundation Computer Network

                              MPC at CFA.HARVARD.EDU
            URL https://www.minorplanetcenter.net/    ISSN 1523-6714

                                    2024 BS1                                    


Observations:
     K24B01S*1C2024 01 19.16646707 09 01.620+34 54 14.00         19.85GVEB070G96
     K24B01S 1C2024 01 19.17206207 09 11.080+34 52 05.70               VEB070G96
     K24B01S 1C2024 01 19.17767207 09 20.570+34 49 57.00               VEB070G96
     K24B01S KC2024 01 19.26181407 11 35.189+34 18 32.33         19.80GVEB070I52
     K24B01S KC2024 01 19.26272807 11 36.560+34 18 12.60         19.68GVEB070I52
     K24B01S KC2024 01 19.26365207 11 38.004+34 17 52.26         20.07GVEB070I52
     K24B01S mC2024 01 19.29046007 12 18.302+34 08 05.71         19.92GVEB070I52
     K24B01S mC2024 01 19.29070007 12 18.630+34 08 00.46         20.31GVEB070I52
     K24B01S mC2024 01 19.29093807 12 19.008+34 07 55.09         20.21GVEB070I52
     K24B01S mC2024 01 19.29117907 12 19.364+34 07 50.12         20.30GVEB070I52
     K24B01S KB2024 01 19.78581507 23 40.25 +31 33 47.9          20.2 GXEB070I93
     K24B01S 1C2024 01 19.78978 07 23 40.97 +31 32 43.4          19.3 VXEB070033
     K24B01S 1C2024 01 19.79053 07 23 41.73 +31 32 31.6          19.2 VXEB070033
     K24B01S 1C2024 01 19.79129 07 23 42.55 +31 32 20.8          19.1 VXEB070033
     K24B01S 1C2024 01 19.79360 07 23 44.90 +31 31 45.8          20.0 VXEB070033
     K24B01S KB2024 01 19.79914907 23 54.12 +31 30 30.2          20.2 GXEB070I93
     K24B01S KC2024 01 20.13463907 29 08.68 +30 13 46.4          21.2 GVEB070H21
     K24B01S KC2024 01 20.13743807 29 10.79 +30 13 11.7          20.8 GVEB070H21
     K24B01S KC2024 01 20.14238207 29 14.52 +30 12 11.3          21.3 GVEB070H21
     K24B01S 1C2024 01 20.15431 07 29 02.52 +30 07 57.1          20.0 VXEB070033
     K24B01S 1C2024 01 20.15489 07 29 02.99 +30 07 49.3          20.0 VXEB070033
     K24B01S 1C2024 01 20.15547 07 29 03.47 +30 07 41.8          20.0 VXEB070033

Observer details:
033 Karl Schwarzschild Observatory, Tautenburg.  Observers S. Melnikov, C.
    Hogner, F. Ludwig, M. Hartmann, B. Stecklum.  Measurer B. Stecklum.
    1.34-m f/3 Schmidt + CCD.
G96 Mt. Lemmon Survey.  Observer A. R. Gibbs.  Measurers T. Beuden, V. F.
    Carvajal, D. Fay, J. B. Fazekas, D. C. Fuls, A. R. Gibbs, A. D. Grauer, H.
    Groeller, J. K. Hogan, R. A. Kowalski, S. M. Larson, G. J. Leonard, D.
    Rankin, R. L. Seaman, F. C. Shelly, K. W. Wierzchos.  1.5-m reflector +
    10K CCD.
H21 Astronomical Research Observatory, Westfield.  Observer R. Holmes.
    Measurers T. Linder, R. Holmes, L. Horn.  0.76-m f/3.0 astrograph + CCD.
I52 Steward Observatory, Mt. Lemmon Station.  Observer R. A. Kowalski.
    Measurers E. C. Beshore, D. Fay, J. B. Fazekas, D. C. Fuls, A. R. Gibbs,
    A. D. Grauer, H. Groeller, J. K. Hogan, R. A. Kowalski, S. M. Larson, G.
    J. Leonard, D. Rankin, R. L. Seaman, F. C. Shelly, K. W. Wierzchos.  1.0-m
    prime focus + CCD.
I93 St Pardon de Conques.  Observer F. Losse.  0.40-m f/3.7 reflector + CMO.

Orbital elements:
2024 BS1                                                 Earth MOID = 0.0003 AU
Epoch 2023 Sept. 13.0 TT = JDT 2460200.5                Veres                   
M 323.88003              (2000.0)            P               Q                  
n   0.45841422     Peri.   82.97773     +0.79782020     -0.60277731             
a   1.6658299      Node   314.09047     +0.54637845     +0.73125715             
e   0.5839788      Incl.    0.95213     +0.25485982     +0.31925302             
P   2.15           H   27.35          G   0.15           U   8                  
Residuals in seconds of arc
240119 G96  0.5+  0.1+    240119 I52  0.1+  0.1-    240120 H21  0.0   0.3+
240119 G96  0.4-  0.1-    240119 I52  0.1+  0.2+    240120 H21  0.1-  0.2-
240119 G96  0.4-  0.6-    240119 I93  0.3-  0.2+    240120 H21  0.0   0.1-
240119 I52  0.2-  0.4-    240119 033  0.1+  0.6+    240120 033  0.9-  0.8+
240119 I52  0.4-  0.0     240119 033  0.0   0.0     240120 033  0.9-  0.5+
240119 I52  0.0   0.0     240119 033  0.5+  0.5+    240120 033  0.9-  0.5+
240119 I52  0.1+  0.1+    240119 033  0.3+  0.0
240119 I52  0.2-  0.1+    240119 I93  0.5+  0.7-

Ephemeris:
2024 BS1                 a,e,i = 1.67, 0.58, 1                   q = 0.6930
Date    TT    R. A. (2000) Decl.     Delta      r    Elong.  Phase     V
2023 12 21    20 04 09.6 -18 07 44   0.2751  0.7611    30.9   138.4    30.6
...
2024 01 05    20 18 39.2 -15 35 50   0.1160  0.8752    19.9   157.5    32.6
...
2024 01 13    20 38 22.9 -09 06 14   0.03910 0.9468    19.8   159.4    31.0
...
2024 01 19    07 03 07.1 +36 05 00   0.02034 1.0030   160.0    19.6    19.9
2024 01 20    07 26 58.6 +30 44 28   0.02933 1.0125   166.6    13.1    20.5
2024 01 21    07 38 29.5 +27 49 12   0.03859 1.0220   169.6    10.0    21.0
...
2024 01 27    07 58 32.1 +22 14 00   0.09584 1.0793   170.9     8.3    23.0
...
2024 02 04    08 05 01.9 +20 29 09   0.1756  1.1560   164.8    12.9    24.6
...
2024 02 19    08 13 01.6 +19 18 43   0.3398  1.2975   151.7    21.2    26.6

M. P. C. Staff               (C) Copyright 2024 MPC           M.P.E.C. 2024-B70





More information about the Iaude mailing list